QPF
0.00 0.00 0.09 0.04 0.01 0.00 0.00 0.00 0.00 0.00 0.00 0.00 0.00 0.00 0.00 0.00 0.02 0.01 0.00 0.00 0.00 0.00 0.00 0.00 0.00 0.00 0.00 0.00 0.00 0.00 0.00 0.01 0.01 0.01 0.01 0.02 0.05 0.05 0.04 0.02 0.01 0.01 0.02
0.00 0.01 0.10 0.06 0.01 0.02 0.00 0.00 0.00 0.00 0.00 0.00 0.00 0.01 0.01 0.01 0.01 0.01 0.02 0.00 0.00 0.00 0.00 0.00 0.00 0.00 0.02 0.01 0.01 0.00 0.00 0.01 0.01 0.01 0.02 0.00 0.03 0.03 0.00 0.00 0.01 0.01 0.02
0.00 0.00 0.04 0.09 0.05 0.06 0.02 0.02 0.00 0.00 0.00 0.00 0.00 0.00 0.00 0.01 0.02 0.01 0.00 0.00 0.00 0.00 0.00 0.00 0.00 0.00 0.00 0.02 0.02 0.02 0.01 0.02 0.02 0.01 0.00 0.00 0.01 0.01 0.01 0.00 0.00 0.01 0.02
0.00 0.02 0.02 0.07 0.03 0.01 0.05 0.04 0.01 0.01 0.00 0.00 0.02 0.02 0.01 0.00 0.01 0.00 0.00 0.00 0.00 0.00 0.00 0.00 0.00 0.00 0.00 0.01 0.03 0.00 0.00 0.00 0.00 0.01 0.00 0.00 0.00 0.01 0.00 0.00 0.00 0.01 0.02
0.00 0.00 0.02 0.04 0.03 0.00 0.06 0.05 0.03 0.04 0.04 0.02 0.02 0.01 0.00 0.00 0.01 0.00 0.00 0.00 0.00 0.00 0.00 0.00 0.00 0.00 0.00 0.00 0.02 0.08 0.00 0.00 0.00 0.00 0.00 0.00 0.00 0.02 0.01 0.00 0.01 0.02 0.02
0.00 0.00 0.01 0.03 0.02 0.01 0.04 0.05 0.07 0.07 0.02 0.00 0.00 0.00 0.00 0.01 0.02 0.01 0.00 0.00 0.00 0.00 0.00 0.00 0.00 0.01 0.01 0.00 0.00 0.04 0.02 0.00 0.00 0.00 0.00 0.01 0.01 0.01 0.00 0.01 0.01 0.02 0.04
0.00 0.00 0.01 0.01 0.00 0.00 0.01 0.02 0.02 0.05 0.01 0.00 0.00 0.02 0.02 0.02 0.01 0.00 0.00 0.00 0.00 0.01 0.00 0.00 0.00 0.00 0.00 0.00 0.00 0.02 0.08 0.00 0.00 0.00 0.00 0.00 0.01 0.03 0.02 0.00 0.01 0.01 0.00
0.00 0.01 0.04 0.01 0.00 0.00 0.00 0.00 0.01 0.00 0.00 0.00 0.00 0.00 0.00 0.01 0.02 0.00 0.00 0.00 0.00 0.00 0.00 0.00 0.00 0.00 0.00 0.00 0.00 0.00 0.06 0.03 0.00 0.00 0.00 0.00 0.02 0.03 0.02 0.01 0.02 0.01 0.01
0.00 0.00 0.01 0.01 0.00 0.00 0.00 0.00 0.00 0.01 0.01 0.00 0.01 0.01 0.00 0.01 0.01 0.00 0.00 0.00 0.00 0.00 0.00 0.00 0.00 0.00 0.00 0.00 0.00 0.00 0.04 0.03 0.00 0.00 0.00 0.00 0.08 0.07 0.07 0.07 0.02 0.01 0.01
0.00 0.00 0.01 0.00 0.00 0.00 0.00 0.00 0.00 0.00 0.00 0.00 0.00 0.00 0.00 0.02 0.02 0.00 0.00 0.00 0.00 0.00 0.00 0.00 0.00 0.00 0.00 0.00 0.00 0.03 0.11 0.04 0.00 0.00 0.00 0.00 0.03 0.08 0.02 0.04 0.03 0.02 0.04
0.00 0.00 0.00 0.00 0.00 0.00 0.00 0.00 0.00 0.00 0.00 0.00 0.00 0.00 0.00 0.00 0.01 0.00 0.01 0.05 0.01 0.03 0.00 0.02 0.01 0.00 0.00 0.00 0.00 0.02 0.04 0.00 0.00 0.00 0.02 0.02 0.02 0.05 0.02 0.06 0.03 0.03 0.02
0.00 0.00 0.00 0.00 0.00 0.00 0.00 0.00 0.00 0.00 0.00 0.00 0.00 0.00 0.00 0.00 0.00 0.00 0.02 0.20 0.23 0.18 0.13 0.10 0.11 0.05 0.00 0.00 0.00 0.05 0.01 0.00 0.00 0.02 0.04 0.04 0.01 0.03 0.03 0.05 0.04 0.07 0.01
0.00 0.00 0.00 0.00 0.00 0.00 0.00 0.00 0.00 0.00 0.00 0.00 0.00 0.00 0.00 0.00 0.01 0.01 0.01 0.06 0.20 0.23 0.22 0.16 0.17 0.11 0.06 0.00 0.00 0.00 0.00 0.00 0.02 0.07 0.09 0.08 0.04 0.06 0.05 0.05 0.07 0.05 0.06
0.00 0.00 0.00 0.00 0.00 0.00 0.00 0.00 0.00 0.00 0.00 0.00 0.00 0.00 0.00 0.01 0.01 0.01 0.05 0.04 0.12 0.12 0.06 0.05 0.06 0.00 0.00 0.00 0.00 0.00 0.00 0.00 0.07 0.08 0.07 0.02 0.03 0.10 0.15 0.03 0.03 0.06 0.03
0.00 0.00 0.00 0.00 0.00 0.00 0.00 0.00 0.00 0.00 0.00 0.00 0.00 0.00 0.00 0.00 0.02 0.02 0.10 0.01 0.05 0.05 0.05 0.01 0.01 0.01 0.00 0.00 0.02 0.00 0.00 0.00 0.00 0.03 0.00 0.00 0.00 0.10 0.18 0.05 0.02 0.01 0.03
0.00 0.00 0.00 0.00 0.00 0.00 0.00 0.00 0.00 0.00 0.00 0.00 0.00 0.00 0.00 0.00 0.00 0.00 0.04 0.01 0.01 0.02 0.01 0.00 0.00 0.00 0.00 0.02 0.12 0.02 0.00 0.00 0.00 0.01 0.00 0.00 0.00 0.04 0.16 0.17 0.09 0.02 0.00
0.00 0.00 0.00 0.00 0.00 0.00 0.00 0.00 0.00 0.00 0.00 0.00 0.00 0.00 0.00 0.00 0.00 0.00 0.05 0.07 0.06 0.07 0.02 0.00 0.00 0.00 0.00 0.03 0.04 0.01 0.00 0.00 0.00 0.00 0.00 0.00 0.00 0.03 0.14 0.17 0.20 0.14 0.02
0.00 0.00 0.00 0.00 0.00 0.00 0.00 0.00 0.00 0.00 0.00 0.00 0.00 0.00 0.00 0.00 0.00 0.00 0.07 0.08 0.14 0.03 0.00 0.00 0.00 0.00 0.04 0.02 0.00 0.01 0.01 0.00 0.00 0.00 0.00 0.00 0.00 0.01 0.12 0.13 0.13 0.13 0.09
0.00 0.00 0.00 0.00 0.00 0.00 0.00 0.00 0.00 0.00 0.00 0.00 0.00 0.00 0.00 0.00 0.00 0.00 0.01 0.07 0.04 0.00 0.00 0.00 0.00 0.00 0.00 0.00 0.00 0.00 0.00 0.00 0.00 0.00 0.00 0.00 0.00 0.00 0.02 0.14 0.05 0.09 0.02
0.00 0.00 0.00 0.00 0.00 0.00 0.00 0.00 0.00 0.00 0.00 0.00 0.00 0.00 0.00 0.00 0.00 0.00 0.00 0.13 0.06 0.00 0.00 0.00 0.00 0.00 0.00 0.00 0.00 0.00 0.00 0.00 0.00 0.00 0.00 0.00 0.00 0.00 0.00 0.03 0.13 0.05 0.08
0.00 0.00 0.00 0.00 0.00 0.00 0.00 0.00 0.00 0.00 0.00 0.00 0.00 0.00 0.00 0.00 0.00 0.00 0.00 0.02 0.00 0.00 0.00 0.00 0.00 0.00 0.00 0.00 0.00 0.01 0.00 0.00 0.00 0.00 0.00 0.00 0.00 0.00 0.00 0.00 0.01 0.06 0.07
0.00 0.00 0.00 0.00 0.00 0.00 0.00 0.00 0.00 0.00 0.00 0.00 0.00 0.00 0.00 0.00 0.00 0.00 0.00 0.00 0.00 0.00 0.00 0.00 0.00 0.00 0.00 0.00 0.00 0.00 0.00 0.00 0.00 0.00 0.00 0.00 0.00 0.00 0.00 0.00 0.00 0.01 0.01
0.00 0.00 0.00 0.00 0.00 0.00 0.00 0.00 0.00 0.00 0.00 0.00 0.00 0.00 0.00 0.00 0.00 0.00 0.00 0.00 0.00 0.00 0.01 0.00 0.00 0.00 0.00 0.00 0.00 0.00 0.00 0.00 0.00 0.00 0.00 0.00 0.00 0.00 0.00 0.00 0.00 0.00 0.00
0.00 0.00 0.00 0.00 0.00 0.00 0.00 0.00 0.00 0.00 0.00 0.00 0.00 0.00 0.00 0.00 0.00 0.00 0.01 0.00 0.00 0.00 0.00 0.00 0.00 0.00 0.00 0.00 0.00 0.00 0.00 0.00 0.00 0.00 0.00 0.00 0.00 0.00 0.00 0.00 0.00 0.00 0.00
0.00 0.00 0.00 0.00 0.00 0.00 0.00 0.00 0.00 0.00 0.00 0.00 0.02 0.00 0.00 0.00 0.00 0.00 0.00 0.00 0.00 0.00 0.00 0.00 0.00 0.00 0.00 0.00 0.00 0.00 0.00 0.00 0.00 0.00 0.06 0.07 0.03 0.00 0.00 0.00 0.00 0.01 0.01
0.00 0.00 0.00 0.00 0.00 0.00 0.00 0.00 0.00 0.00 0.00 0.00 0.00 0.00 0.00 0.00 0.00 0.00 0.00 0.00 0.00 0.00 0.00 0.00 0.00 0.00 0.00 0.00 0.00 0.00 0.00 0.01 0.03 0.01 0.00 0.04 0.10 0.05 0.04 0.04 0.09 0.20 0.03
MSLP
1018.18 1017.86 1017.87 1017.71 1017.68 1017.60 1017.46 1017.32 1017.57 1017.72 1017.83 1018.03 1018.06 1018.14 1018.16 1018.25 1018.15 1018.26 1018.32 1018.36 1018.35 1018.31 1018.35 1018.51 1018.60 1018.68 1018.83 1018.92 1018.99 1019.10 1019.13 1019.27 1019.37 1019.50 1019.68 1019.93 1020.10 1020.21 1020.28 1020.41 1020.43 1020.47 1020.99
1017.94 1017.92 1018.08 1018.06 1017.91 1017.93 1017.86 1017.76 1017.82 1017.86 1018.00 1018.20 1018.25 1018.43 1018.40 1018.55 1018.53 1018.44 1018.58 1018.67 1018.66 1018.64 1018.72 1018.72 1018.86 1019.06 1019.12 1019.19 1019.29 1019.31 1019.36 1019.43 1019.48 1019.69 1019.85 1020.03 1020.36 1020.46 1020.58 1020.62 1020.64 1021.15 1021.34
1018.17 1018.17 1018.19 1018.28 1018.33 1018.22 1018.19 1018.11 1018.10 1018.18 1018.26 1018.42 1018.54 1018.66 1018.71 1018.73 1018.83 1018.65 1018.78 1018.91 1018.92 1019.00 1019.05 1019.16 1019.23 1019.31 1019.44 1019.59 1019.64 1019.63 1019.69 1019.74 1019.80 1020.00 1020.10 1019.85 1020.24 1020.64 1020.76 1020.93 1021.17 1021.51 1021.66
1018.06 1018.40 1018.30 1018.41 1018.45 1018.40 1018.50 1018.41 1018.35 1018.50 1018.60 1018.70 1018.90 1019.02 1019.01 1018.99 1019.09 1019.03 1018.99 1019.11 1019.21 1019.24 1019.40 1019.50 1019.60 1019.74 1019.73 1019.83 1019.86 1019.90 1019.99 1020.08 1020.15 1020.29 1020.03 1019.83 1020.10 1020.90 1021.03 1021.19 1021.42 1021.71 1021.93
1018.32 1018.46 1018.50 1018.48 1018.46 1018.65 1018.84 1018.76 1018.68 1018.84 1018.89 1018.96 1019.09 1019.20 1019.33 1019.36 1019.44 1019.31 1019.24 1019.29 1019.42 1019.49 1019.66 1019.74 1019.86 1020.02 1020.14 1020.15 1020.24 1020.26 1020.29 1020.44 1020.55 1020.37 1020.47 1020.41 1020.33 1021.18 1021.35 1021.54 1021.73 1021.93 1022.04
1018.29 1018.55 1018.69 1018.60 1018.65 1018.71 1018.92 1019.04 1019.11 1019.21 1019.13 1019.29 1019.37 1019.52 1019.68 1019.81 1019.83 1019.75 1019.55 1019.55 1019.56 1019.70 1019.81 1019.95 1020.11 1020.31 1020.39 1020.37 1020.37 1020.46 1020.52 1020.69 1020.82 1020.68 1020.65 1020.97 1020.66 1021.44 1021.59 1021.67 1021.89 1022.20 1022.45
1018.63 1018.57 1018.62 1018.76 1018.75 1018.87 1019.05 1019.06 1019.28 1019.44 1019.47 1019.61 1019.64 1019.84 1019.97 1020.00 1020.20 1020.12 1020.04 1019.93 1019.94 1019.95 1020.12 1020.18 1020.31 1020.38 1020.39 1020.41 1020.44 1020.44 1020.62 1020.82 1020.78 1021.06 1021.02 1021.08 1021.12 1021.64 1021.80 1022.00 1022.20 1022.40 1022.63
1018.92 1018.83 1018.75 1018.95 1018.94 1018.99 1019.24 1019.38 1019.39 1019.66 1019.81 1019.92 1019.96 1020.00 1020.11 1020.21 1020.35 1020.45 1020.37 1020.28 1020.25 1020.23 1020.36 1020.51 1020.51 1020.52 1020.55 1020.51 1020.48 1020.45 1020.61 1020.86 1020.96 1021.17 1021.44 1021.35 1021.74 1021.85 1022.05 1022.22 1022.42 1022.56 1022.82
1018.76 1018.66 1018.86 1018.81 1019.07 1019.24 1019.43 1019.63 1019.67 1019.94 1020.00 1020.15 1020.14 1020.18 1020.31 1020.47 1020.51 1020.56 1020.56 1020.51 1020.47 1020.48 1020.57 1020.67 1020.75 1020.74 1020.67 1020.71 1020.68 1020.70 1020.79 1021.03 1021.10 1021.46 1021.50 1021.55 1022.00 1022.09 1022.25 1022.40 1022.56 1022.68 1022.90
1018.60 1018.81 1019.17 1018.99 1018.93 1019.20 1019.35 1019.76 1019.79 1020.07 1020.15 1020.30 1020.37 1020.44 1020.57 1020.64 1020.61 1020.61 1020.63 1020.59 1020.62 1020.65 1020.69 1020.87 1020.85 1020.87 1020.91 1020.86 1020.86 1020.83 1021.05 1021.23 1021.44 1021.53 1021.79 1021.67 1022.11 1022.10 1022.35 1022.61 1022.76 1022.87 1023.02
1018.94 1019.04 1019.16 1019.14 1019.34 1019.55 1019.64 1019.72 1019.88 1020.07 1020.25 1020.38 1020.44 1020.52 1020.54 1020.49 1020.53 1020.45 1020.55 1020.58 1020.58 1020.73 1020.82 1020.96 1020.96 1020.82 1020.95 1020.98 1020.96 1021.01 1021.21 1021.31 1021.66 1021.90 1021.95 1022.15 1022.28 1022.34 1022.39 1022.79 1022.85 1023.06 1023.03
1018.79 1019.20 1019.27 1019.52 1019.44 1019.51 1019.66 1019.82 1019.86 1020.02 1020.06 1020.30 1020.42 1020.46 1020.54 1020.54 1020.54 1020.55 1020.51 1020.54 1020.87 1021.00 1020.56 1020.86 1021.04 1020.93 1021.00 1021.09 1020.88 1021.20 1021.52 1021.67 1021.83 1022.10 1022.20 1022.35 1022.50 1022.58 1022.60 1022.78 1022.95 1023.17 1023.28
1018.59 1019.01 1019.38 1019.30 1019.50 1019.50 1019.57 1019.63 1019.77 1019.91 1020.08 1020.31 1020.46 1020.46 1020.53 1020.50 1020.46 1020.36 1020.35 1020.53 1020.80 1021.08 1021.07 1021.19 1021.24 1021.07 1020.94 1021.22 1021.04 1021.22 1021.59 1021.62 1021.96 1022.23 1022.24 1022.51 1022.69 1022.87 1022.77 1022.79 1022.96 1023.26 1023.48
1018.53 1018.75 1019.04 1019.06 1019.37 1019.36 1019.38 1019.49 1019.69 1019.71 1019.99 1020.15 1020.11 1020.31 1020.33 1020.23 1020.20 1020.05 1019.84 1020.16 1020.73 1020.66 1021.00 1021.24 1021.21 1021.10 1021.06 1021.21 1021.20 1021.15 1021.12 1021.22 1021.94 1022.26 1022.45 1022.56 1022.69 1022.79 1022.83 1022.84 1023.05 1023.20 1023.44
1018.29 1018.46 1018.66 1018.83 1019.15 1019.23 1019.42 1019.43 1019.59 1019.65 1019.83 1019.82 1019.84 1019.98 1020.05 1020.10 1019.96 1019.83 1019.79 1019.89 1020.32 1020.67 1020.91 1020.92 1020.99 1021.04 1021.07 1020.99 1021.10 1021.17 1021.20 1021.34 1021.70 1021.76 1022.16 1022.51 1022.66 1022.71 1022.73 1022.80 1022.98 1023.15 1023.39
1017.89 1018.15 1018.39 1018.59 1018.87 1019.03 1019.19 1019.38 1019.50 1019.62 1019.70 1019.64 1019.67 1019.85 1019.94 1019.91 1019.85 1019.73 1020.02 1019.83 1019.96 1020.30 1020.56 1020.76 1020.87 1020.97 1020.77 1020.69 1020.88 1021.00 1021.07 1021.31 1021.59 1021.79 1021.95 1022.27 1022.57 1022.73 1022.88 1022.99 1022.99 1023.01 1023.23
1017.48 1017.78 1018.04 1018.35 1018.48 1018.85 1019.06 1019.26 1019.40 1019.37 1019.26 1019.49 1019.33 1019.54 1019.68 1019.82 1019.72 1019.77 1019.97 1019.97 1020.02 1020.24 1020.44 1020.62 1020.68 1020.67 1020.56 1020.62 1020.67 1020.84 1020.95 1021.23 1021.38 1021.69 1021.81 1022.03 1022.44 1022.72 1023.04 1023.21 1023.36 1023.16 1023.11
1017.01 1017.36 1017.79 1017.93 1018.07 1018.38 1018.75 1019.12 1019.19 1019.14 1019.28 1019.24 1019.17 1019.16 1019.27 1019.43 1019.66 1019.67 1019.59 1019.70 1020.01 1020.17 1020.34 1020.41 1020.31 1020.47 1020.43 1020.45 1020.65 1020.89 1020.96 1021.25 1021.39 1021.66 1021.76 1021.92 1021.94 1022.00 1022.72 1023.04 1023.07 1023.10 1023.16
1016.73 1017.01 1017.28 1017.66 1017.84 1018.21 1018.58 1018.79 1018.97 1019.12 1019.16 1019.04 1018.89 1018.95 1019.03 1019.18 1019.39 1019.49 1019.37 1019.31 1019.65 1019.95 1020.26 1020.43 1020.54 1020.27 1020.35 1020.56 1020.65 1020.88 1020.94 1021.03 1021.18 1021.28 1021.44 1021.65 1021.83 1021.95 1021.89 1022.45 1022.71 1022.85 1022.90
1016.24 1016.67 1017.01 1017.27 1017.55 1017.96 1018.10 1018.64 1018.76 1018.84 1018.86 1018.81 1018.72 1018.69 1018.84 1019.03 1019.21 1019.27 1019.23 1019.37 1019.37 1019.57 1020.04 1020.25 1020.50 1020.60 1020.55 1020.61 1020.61 1020.82 1020.92 1020.84 1021.01 1020.98 1021.05 1021.21 1021.43 1021.68 1021.78 1021.94 1022.43 1022.69 1022.82
1015.73 1016.18 1016.67 1017.03 1017.29 1017.76 1018.04 1018.28 1018.39 1018.45 1018.65 1018.63 1018.59 1018.59 1018.67 1018.93 1019.02 1019.15 1019.08 1019.27 1019.50 1019.64 1020.01 1020.18 1020.38 1020.56 1020.71 1020.81 1020.58 1020.67 1020.79 1020.96 1020.96 1020.98 1020.92 1021.06 1021.22 1021.40 1021.55 1021.65 1021.75 1022.23 1022.51
1015.24 1015.58 1016.06 1016.47 1017.01 1017.49 1017.76 1017.99 1018.10 1018.29 1018.42 1018.38 1018.37 1018.36 1018.53 1018.70 1018.85 1018.99 1019.10 1019.32 1019.50 1019.64 1019.89 1020.07 1020.10 1020.17 1020.52 1020.74 1020.38 1020.35 1020.16 1020.63 1020.73 1020.89 1020.85 1020.92 1021.00 1021.05 1021.39 1021.39 1021.46 1021.87 1022.01
1014.50 1014.91 1015.33 1015.96 1016.56 1017.05 1017.54 1017.95 1018.19 1018.28 1018.40 1018.41 1018.21 1018.07 1018.16 1018.44 1018.66 1018.79 1018.97 1019.26 1019.47 1019.42 1019.61 1019.94 1020.03 1020.02 1020.00 1020.59 1020.70 1020.26 1020.08 1020.03 1020.50 1020.80 1020.81 1020.74 1020.73 1020.74 1020.87 1021.08 1021.32 1021.57 1021.82
1013.59 1014.19 1014.83 1015.50 1016.10 1016.70 1017.30 1017.61 1017.84 1017.88 1017.91 1017.81 1017.93 1017.99 1018.13 1018.25 1018.39 1018.63 1018.71 1019.17 1019.44 1019.42 1019.65 1019.75 1019.92 1020.00 1020.06 1019.96 1020.45 1020.50 1020.57 1020.37 1019.88 1019.75 1020.40 1020.38 1020.49 1020.45 1020.48 1020.65 1020.81 1021.26 1021.64
1013.35 1013.70 1014.30 1015.08 1015.69 1016.19 1016.82 1017.23 1017.54 1017.67 1017.66 1017.77 1017.91 1018.03 1018.12 1018.14 1018.29 1018.40 1018.55 1018.87 1019.22 1019.26 1019.42 1019.63 1019.76 1019.95 1020.07 1020.00 1019.92 1020.00 1020.09 1020.03 1019.98 1019.65 1019.81 1020.13 1020.14 1020.05 1020.06 1020.19 1020.34 1020.75 1021.40
1012.93 1013.44 1013.83 1014.60 1015.07 1015.67 1016.20 1016.83 1017.23 1017.34 1017.49 1017.61 1017.67 1017.81 1017.92 1017.92 1017.99 1018.22 1018.29 1018.60 1018.99 1019.08 1019.27 1019.38 1019.67 1019.95 1020.06 1020.04 1019.89 1019.78 1019.56 1019.49 1019.67 1019.82 1019.48 1019.69 1019.73 1019.71 1020.00 1020.16 1020.10 1020.64 1021.07
Thickness
5757 5761 5762 5763 5764 5767 5772 5777 5776 5775 5773 5771 5771 5771 5770 5768 5770 5769 5769 5768 5768 5767 5766 5762 5760 5758 5755 5753 5751 5748 5745 5743 5741 5739 5737 5735 5734 5733 5732 5732 5732 5732 5730
5760 5761 5761 5761 5764 5767 5771 5774 5774 5775 5774 5772 5771 5770 5771 5769 5770 5770 5769 5767 5766 5766 5765 5762 5760 5756 5754 5753 5751 5749 5747 5745 5743 5741 5739 5736 5735 5734 5733 5733 5733 5731 5731
5758 5759 5760 5761 5763 5767 5769 5771 5774 5774 5774 5773 5772 5772 5771 5772 5770 5770 5769 5767 5767 5765 5764 5761 5759 5757 5754 5751 5751 5750 5748 5746 5744 5742 5741 5741 5737 5735 5735 5733 5732 5731 5730
5757 5757 5760 5763 5764 5767 5768 5770 5774 5773 5774 5773 5772 5770 5772 5772 5770 5770 5769 5768 5766 5765 5763 5760 5758 5755 5754 5752 5751 5750 5749 5747 5745 5744 5744 5745 5742 5736 5735 5734 5733 5732 5731
5758 5757 5760 5764 5766 5766 5767 5769 5772 5771 5772 5773 5772 5771 5769 5770 5768 5768 5768 5767 5766 5764 5762 5760 5757 5755 5752 5751 5750 5750 5748 5747 5746 5746 5744 5743 5743 5736 5734 5734 5733 5732 5731
5757 5756 5760 5764 5766 5766 5766 5768 5770 5769 5771 5772 5771 5770 5767 5767 5766 5766 5767 5766 5765 5764 5762 5760 5757 5755 5753 5753 5751 5750 5748 5747 5745 5745 5744 5741 5742 5737 5735 5734 5734 5732 5730
5752 5756 5761 5764 5766 5766 5765 5768 5769 5769 5770 5770 5770 5768 5766 5765 5764 5764 5764 5764 5763 5762 5761 5759 5757 5756 5754 5754 5753 5752 5749 5747 5747 5744 5743 5742 5741 5737 5736 5734 5733 5732 5730
5751 5753 5759 5762 5765 5765 5765 5766 5769 5768 5768 5768 5768 5767 5765 5764 5764 5762 5762 5762 5761 5760 5759 5758 5756 5756 5755 5754 5754 5753 5751 5749 5747 5744 5741 5742 5739 5738 5736 5735 5732 5732 5730
5751 5753 5754 5762 5764 5763 5765 5766 5768 5767 5768 5767 5767 5766 5765 5763 5762 5761 5761 5761 5760 5759 5758 5757 5755 5754 5755 5754 5754 5753 5752 5749 5748 5744 5742 5741 5738 5738 5737 5735 5734 5733 5731
5752 5752 5755 5761 5765 5764 5766 5765 5768 5768 5768 5766 5765 5764 5762 5761 5761 5761 5760 5760 5759 5757 5756 5755 5755 5753 5753 5753 5752 5752 5750 5748 5746 5745 5742 5742 5739 5739 5738 5735 5734 5733 5732
5752 5754 5757 5762 5763 5763 5764 5767 5769 5768 5767 5765 5764 5764 5763 5763 5762 5761 5760 5758 5757 5755 5753 5752 5753 5754 5753 5752 5752 5751 5750 5748 5746 5744 5742 5740 5739 5738 5738 5735 5735 5734 5734
5751 5751 5757 5760 5761 5763 5766 5769 5770 5769 5769 5766 5765 5765 5764 5763 5763 5761 5759 5756 5753 5751 5750 5750 5751 5754 5753 5752 5753 5751 5750 5748 5745 5741 5739 5738 5737 5737 5737 5737 5736 5734 5733
5756 5757 5760 5762 5763 5766 5769 5770 5771 5771 5769 5768 5766 5766 5765 5765 5764 5762 5761 5759 5753 5751 5751 5748 5751 5753 5754 5751 5752 5750 5749 5748 5744 5740 5738 5737 5737 5738 5738 5737 5736 5734 5733
5758 5760 5762 5764 5765 5771 5771 5773 5773 5772 5771 5771 5770 5769 5768 5768 5767 5766 5767 5761 5754 5754 5753 5750 5752 5753 5753 5752 5752 5752 5751 5750 5744 5741 5737 5736 5737 5737 5738 5737 5736 5736 5734
5763 5768 5770 5769 5771 5773 5773 5774 5774 5774 5773 5774 5774 5773 5771 5770 5769 5769 5768 5764 5759 5756 5753 5754 5754 5755 5755 5754 5753 5752 5750 5748 5745 5744 5741 5738 5738 5738 5739 5738 5737 5736 5734
5770 5771 5774 5775 5774 5775 5775 5775 5775 5775 5775 5776 5776 5774 5773 5772 5771 5770 5768 5767 5764 5760 5757 5757 5757 5757 5757 5757 5755 5753 5751 5749 5747 5744 5743 5741 5739 5738 5738 5736 5737 5737 5736
5776 5778 5778 5777 5777 5777 5777 5776 5776 5778 5779 5778 5779 5777 5775 5773 5772 5771 5770 5770 5768 5764 5760 5759 5759 5760 5761 5760 5758 5755 5753 5750 5749 5746 5745 5743 5741 5739 5738 5736 5735 5736 5737
5784 5784 5783 5783 5784 5782 5780 5778 5778 5780 5780 5780 5780 5781 5779 5776 5773 5774 5774 5774 5772 5768 5764 5763 5764 5764 5764 5765 5761 5757 5755 5752 5750 5748 5746 5745 5744 5744 5739 5736 5736 5736 5736
5789 5789 5789 5790 5788 5786 5783 5782 5781 5781 5781 5782 5784 5783 5782 5778 5776 5776 5778 5778 5775 5772 5768 5766 5765 5768 5767 5765 5762 5759 5756 5755 5753 5751 5749 5748 5747 5745 5745 5741 5739 5738 5737
5795 5794 5793 5794 5793 5791 5788 5785 5784 5784 5783 5784 5785 5785 5783 5780 5778 5779 5780 5779 5778 5776 5772 5769 5768 5767 5768 5766 5764 5760 5758 5757 5755 5754 5753 5751 5749 5746 5746 5744 5740 5738 5737
5800 5798 5796 5795 5795 5793 5790 5787 5786 5785 5786 5786 5785 5785 5784 5781 5780 5781 5782 5780 5778 5777 5774 5773 5771 5768 5766 5766 5764 5761 5760 5758 5756 5755 5755 5752 5750 5748 5747 5746 5745 5741 5739
5803 5803 5802 5800 5797 5794 5794 5792 5791 5790 5789 5788 5786 5787 5785 5784 5783 5782 5781 5781 5779 5777 5775 5775 5775 5772 5769 5768 5764 5761 5755 5756 5758 5757 5755 5754 5751 5750 5747 5746 5746 5743 5741
5809 5808 5808 5804 5800 5797 5795 5792 5790 5791 5788 5786 5788 5790 5788 5786 5785 5784 5783 5780 5779 5779 5778 5776 5776 5774 5771 5769 5767 5764 5755 5751 5754 5757 5756 5757 5756 5753 5750 5747 5744 5741 5739
5817 5817 5814 5809 5804 5800 5796 5793 5791 5791 5788 5792 5791 5792 5790 5789 5787 5785 5785 5782 5780 5779 5777 5776 5775 5774 5773 5770 5768 5768 5765 5764 5758 5755 5759 5760 5759 5757 5754 5750 5747 5742 5737
5822 5821 5818 5813 5809 5805 5799 5796 5794 5793 5795 5795 5793 5790 5790 5790 5788 5787 5786 5784 5782 5781 5779 5777 5775 5773 5772 5771 5770 5770 5770 5771 5770 5765 5754 5755 5760 5761 5758 5753 5750 5746 5739
5825 5824 5824 5817 5815 5811 5806 5800 5796 5795 5794 5792 5792 5790 5789 5791 5790 5788 5788 5787 5784 5783 5781 5779 5775 5772 5772 5772 5775 5775 5776 5772 5768 5763 5761 5758 5756 5759 5759 5755 5753 5747 5743